This is the latest recevied weather packets stored in our database for station/object KE8WAY. If no packets are shown the sender has not sent any weather packets the latest 10 day(s).
| Time | Temp. | Humidity | Pressure | Rain* | Wind** | Luminosity | Snow |
|---|---|---|---|---|---|---|---|
| 1777940565 | 22.22° C | 45% | 1000.5 hPa | 0 mm | - | 7 W/m² | - |
| 1777940263 | 22.78° C | 45% | 1000.5 hPa | 0 mm | - | 12 W/m² | - |
| 1777939960 | 22.78° C | 43% | 1000 hPa | 0 mm | - | 17 W/m² | - |
| 1777939657 | 22.78° C | 43% | 1000 hPa | 0 mm | - | 25 W/m² | - |
| 1777939355 | 22.78° C | 44% | 1000 hPa | 0 mm | - | 30 W/m² | - |
| 1777939051 | 22.78° C | 44% | 999.8 hPa | 0 mm | - | 31 W/m² | - |
| 1777938747 | 22.78° C | 44% | 1000.3 hPa | 0 mm | - | 34 W/m² | - |
| 1777938445 | 22.78° C | 43% | 1000.3 hPa | 0 mm | - | 39 W/m² | - |
| 1777938142 | 23.33° C | 42% | 1000.3 hPa | 0 mm | - | 44 W/m² | - |
| 1777937838 | 23.33° C | 42% | 1000 hPa | 0 mm | - | 49 W/m² | - |
| 1777937534 | 23.33° C | 41% | 999.7 hPa | 0 mm | - | 55 W/m² | - |
| 1777937231 | 23.33° C | 42% | 999.9 hPa | 0 mm | - | 54 W/m² | - |
| 1777936928 | 23.33° C | 42% | 999.7 hPa | 0 mm | - | 49 W/m² | - |
| 1777936625 | 23.33° C | 44% | 1000 hPa | 0 mm | - | 49 W/m² | - |
| 1777936321 | 23.33° C | 43% | 1000.1 hPa | 0 mm | - | 52 W/m² | - |
| 1777936017 | 23.33° C | 42% | 1000 hPa | 0 mm | - | 54 W/m² | - |
| 1777935716 | 23.89° C | 42% | 999.9 hPa | 0 mm | - | 60 W/m² | - |
| 1777935415 | 23.89° C | 40% | 999.6 hPa | 0 mm | - | 68 W/m² | - |
| 1777935110 | 23.89° C | 41% | 999.7 hPa | 0 mm | - | 79 W/m² | - |
| 1777934808 | 23.89° C | 41% | 999.7 hPa | 0 mm | - | 88 W/m² | - |
| 1777934504 | 23.89° C | 40% | 999.9 hPa | 0 mm | - | 100 W/m² | - |
| 1777934201 | 24.44° C | 40% | 999.7 hPa | 0 mm | - | 106 W/m² | - |
| 1777933897 | 25° C | 41% | 999.8 hPa | 0 mm | - | 88 W/m² | - |
| 1777933594 | 24.44° C | 41% | 999.7 hPa | 0 mm | - | 101 W/m² | - |
| 1777933291 | 24.44° C | 43% | 999.7 hPa | 0 mm | - | 76 W/m² | - |
* Rain latest hour (hover to see other rain measurements)
** Current wind speed in m/s (hover to see current wind gust speed)